COSMOS 2493 (SKRL 756)

导读

COSMOS 2493(SKRL 756)是独联体(CIS,实际为俄罗斯)于2013年12月28日发射的卫星,隶属于俄罗斯长期运营的“宇宙”(Cosmos)卫星系列。该系列卫星覆盖科研、通信、军事侦察等多类任务,作为军用相关卫星,它主要承担军事通信或侦察任务,依托近地轨道运行,服务于俄罗斯太空战略部署,目前仍在轨发挥相应功能,是俄罗斯航天军事体系的重要组成部分。

基本信息
目录编号:
39490
目录名称:
COSMOS 2493 (SKRL 756)
国际标识:
2013-078A
轨道中心:
EARTH
卫星名称:
COSMOS 2493 (SKRL 756)
卫星全名:
--
卫星状态:
在轨 (已飞行4594 天)
发射日期:
2013-12-28 UTC
国别 :
俄罗斯(独联体) (CIS)
星等 :
--
轨道信息
数据来源 国际轨道数据 AOE轨道数据
星历时间 2026-07-27T21:59:43+0800
8小时前
查看轨道信息
2026-07-25T17:00:00+0800
2天前
查看轨道信息
半长轴 6937.827km 6937.872km
偏心率 0.0014616 0.0014784
轨道倾角 82.410° 82.408°
近地点辐角 105.888° 112.304°
升交点赤经 221.660° 223.821°
平近点角 254.396° 192.985°
近地点 549.549km 549.478km
远地点 569.831km 569.992km
周期 95.851分钟 95.852分钟
每日圈数 15.023377 15.023231
详细信息
使用方式:
暂无
2D轨道图
3D轨道图
轨道高度分析图
轨道倾角分析图
轨道综合分析图
查看轨道综合分析图